Time,TemperatureF,DewpointF,PressureIn,WindDirection,WindDirectionDegrees,WindSpeedMPH,WindSpeedGustMPH,Humidity,HourlyPrecipIn,Conditions,Clouds,dailyrainin,SoftwareType,DateUTC
2013-07-24 00:00:00,69.5,68.9,29.92,SW,235,7.0,7.0,98,0.00,,,0.00,WeatherTracker,2013-07-24 05:00:00,
2013-07-24 00:10:00,69.4,68.8,29.92,WSW,249,1.0,8.0,98,0.00,,,0.00,WeatherTracker,2013-07-24 05:10:00,
2013-07-24 00:15:00,69.3,68.7,29.92,WSW,239,0.0,7.0,98,0.00,,,0.00,WeatherTracker,2013-07-24 05:15:00,
2013-07-24 00:20:00,69.4,68.8,29.93,NNE,23,3.0,4.0,98,0.00,,,0.00,WeatherTracker,2013-07-24 05:20:00,
2013-07-24 00:25:00,69.4,68.8,29.93,NNE,32,4.0,7.0,98,0.00,,,0.00,WeatherTracker,2013-07-24 05:25:00,
2013-07-24 00:30:00,69.4,68.8,29.93,NNE,33,2.0,7.0,98,0.00,,,0.00,WeatherTracker,2013-07-24 05:30:00,
2013-07-24 00:35:00,69.5,68.9,29.93,North,5,4.0,6.0,98,0.00,,,0.00,WeatherTracker,2013-07-24 05:35:00,
2013-07-24 00:45:00,69.5,68.9,29.94,NNE,24,0.0,5.0,98,0.00,,,0.00,WeatherTracker,2013-07-24 05:45:00,
2013-07-24 00:50:00,69.6,69.0,29.94,NNE,24,3.0,4.0,98,0.00,,,0.00,WeatherTracker,2013-07-24 05:50:00,
2013-07-24 00:55:00,69.6,69.0,29.93,NNE,26,3.0,5.0,98,0.00,,,0.00,WeatherTracker,2013-07-24 05:55:00,
2013-07-24 01:05:00,69.6,69.0,29.92,South,175,0.0,5.0,98,0.00,,,0.00,WeatherTracker,2013-07-24 06:05:00,
2013-07-24 01:15:00,69.5,68.9,29.91,South,186,4.0,5.0,98,0.00,,,0.00,WeatherTracker,2013-07-24 06:15:00,
2013-07-24 01:20:00,69.5,68.9,29.91,South,186,0.0,5.0,98,0.00,,,0.00,WeatherTracker,2013-07-24 06:20:00,
2013-07-24 01:25:00,69.5,68.9,29.91,South,186,0.0,4.0,98,0.00,,,0.00,WeatherTracker,2013-07-24 06:25:00,
2013-07-24 01:35:00,69.4,68.8,29.91,South,186,0.0,0.0,98,0.00,,,0.00,WeatherTracker,2013-07-24 06:35:00,
2013-07-24 01:40:00,69.4,68.8,29.91,South,186,0.0,0.0,98,0.00,,,0.00,WeatherTracker,2013-07-24 06:40:00,
2013-07-24 01:45:00,69.5,68.9,29.91,South,186,0.0,0.0,98,0.00,,,0.00,WeatherTracker,2013-07-24 06:45:00,
2013-07-24 01:50:00,69.4,68.8,29.91,South,186,0.0,5.0,98,0.00,,,0.00,WeatherTracker,2013-07-24 06:50:00,
2013-07-24 02:00:00,69.4,68.8,29.90,South,186,0.0,2.0,98,0.00,,,0.00,WeatherTracker,2013-07-24 07:00:00,
2013-07-24 02:05:00,69.4,68.8,29.90,South,186,0.0,0.0,98,0.00,,,0.00,WeatherTracker,2013-07-24 07:05:00,
2013-07-24 02:10:00,69.4,68.8,29.90,South,186,0.0,0.0,98,0.00,,,0.00,WeatherTracker,2013-07-24 07:10:00,
2013-07-24 02:15:00,69.5,68.9,29.89,South,186,0.0,0.0,98,0.00,,,0.00,WeatherTracker,2013-07-24 07:15:00,
2013-07-24 02:20:00,69.5,68.9,29.89,South,186,0.0,2.0,98,0.00,,,0.00,WeatherTracker,2013-07-24 07:20:00,
2013-07-24 02:30:00,69.4,68.8,29.88,South,170,1.0,5.0,98,0.00,,,0.00,WeatherTracker,2013-07-24 07:30:00,
2013-07-24 02:40:00,69.3,68.7,29.88,South,191,0.0,4.0,98,0.00,,,0.00,WeatherTracker,2013-07-24 07:40:00,
2013-07-24 02:45:00,69.3,68.7,29.88,SSW,200,0.0,5.0,98,0.00,,,0.00,WeatherTracker,2013-07-24 07:45:00,
2013-07-24 02:50:00,69.4,68.8,29.88,SSW,200,3.0,5.0,98,0.00,,,0.00,WeatherTracker,2013-07-24 07:50:00,
2013-07-24 03:00:00,69.4,68.8,29.87,SW,223,3.0,6.0,98,0.00,,,0.00,WeatherTracker,2013-07-24 08:00:00,
2013-07-24 03:05:00,69.4,68.8,29.87,SW,223,0.0,6.0,98,0.00,,,0.00,WeatherTracker,2013-07-24 08:05:00,
2013-07-24 03:11:00,69.5,68.9,29.87,SSW,202,2.0,0.0,98,0.00,,,0.00,WeatherTracker,2013-07-24 08:11:00,
2013-07-24 03:20:00,69.5,68.9,29.87,SSW,202,0.0,4.0,98,0.00,,,0.00,WeatherTracker,2013-07-24 08:20:00,
2013-07-24 03:30:00,69.6,69.0,29.86,SSW,202,0.0,3.0,98,0.00,,,0.00,WeatherTracker,2013-07-24 08:30:00,
2013-07-24 03:35:00,69.6,69.0,29.87,SSW,202,0.0,0.0,98,0.00,,,0.00,WeatherTracker,2013-07-24 08:35:00,
2013-07-24 03:45:00,69.7,69.1,29.87,SSW,202,0.0,3.0,98,0.00,,,0.00,WeatherTracker,2013-07-24 08:45:00,
2013-07-24 03:55:00,69.7,69.1,29.86,SSW,202,0.0,3.0,98,0.00,,,0.00,WeatherTracker,2013-07-24 08:55:00,
2013-07-24 04:05:00,69.7,69.1,29.87,SSW,202,0.0,0.0,98,0.00,,,0.00,WeatherTracker,2013-07-24 09:05:00,
2013-07-24 04:10:00,69.9,69.3,29.87,SSW,202,0.0,0.0,98,0.00,,,0.00,WeatherTracker,2013-07-24 09:10:00,
2013-07-24 04:15:00,70.0,69.4,29.87,SSW,202,0.0,0.0,98,0.00,,,0.00,WeatherTracker,2013-07-24 09:15:00,
2013-07-24 04:20:00,70.1,69.5,29.87,SSW,202,0.0,0.0,98,0.00,,,0.00,WeatherTracker,2013-07-24 09:20:00,
2013-07-24 04:30:00,70.2,69.6,29.87,SSW,202,0.0,0.0,98,0.00,,,0.00,WeatherTracker,2013-07-24 09:30:00,
2013-07-24 04:40:00,70.3,69.7,29.88,SSW,202,0.0,0.0,98,0.00,,,0.00,WeatherTracker,2013-07-24 09:40:00,
2013-07-24 04:50:00,70.4,69.8,29.88,SSW,202,2.0,0.0,98,0.00,,,0.00,WeatherTracker,2013-07-24 09:50:00,
2013-07-24 04:55:00,70.4,69.8,29.88,SSW,202,1.0,4.0,98,0.00,,,0.00,WeatherTracker,2013-07-24 09:55:00,
2013-07-24 05:05:00,70.5,69.9,29.88,SSW,202,3.0,5.0,98,0.00,,,0.00,WeatherTracker,2013-07-24 10:05:00,
2013-07-24 05:10:00,70.6,70.0,29.88,West,261,4.0,6.0,98,0.00,,,0.00,WeatherTracker,2013-07-24 10:10:00,
2013-07-24 05:20:00,70.7,70.1,29.89,WSW,246,2.0,5.0,98,0.00,,,0.00,WeatherTracker,2013-07-24 10:20:00,
2013-07-24 05:25:00,70.7,70.1,29.89,WSW,248,2.0,5.0,98,0.00,,,0.00,WeatherTracker,2013-07-24 10:25:00,
2013-07-24 05:30:00,70.7,70.1,29.89,WSW,250,3.0,5.0,98,0.00,,,0.00,WeatherTracker,2013-07-24 10:30:00,
2013-07-24 05:35:00,70.8,70.2,29.88,WSW,258,5.0,6.0,98,0.00,,,0.00,WeatherTracker,2013-07-24 10:35:00,
2013-07-24 05:45:00,71.0,70.4,29.89,West,259,4.0,6.0,98,0.00,,,0.00,WeatherTracker,2013-07-24 10:45:00,
2013-07-24 05:50:00,71.1,70.5,29.89,WSW,257,3.0,6.0,98,0.00,,,0.00,WeatherTracker,2013-07-24 10:50:00,
2013-07-24 05:55:00,71.2,70.6,29.89,West,260,3.0,8.0,98,0.00,,,0.00,WeatherTracker,2013-07-24 10:55:00,
2013-07-24 06:00:00,71.3,70.7,29.89,West,265,3.0,8.0,98,0.00,,,0.00,WeatherTracker,2013-07-24 11:00:00,
2013-07-24 06:10:00,71.6,71.0,29.89,West,264,2.0,7.0,98,0.00,,,0.00,WeatherTracker,2013-07-24 11:10:00,
2013-07-24 06:20:00,71.8,71.2,29.89,West,263,2.0,8.0,98,0.00,,,0.00,WeatherTracker,2013-07-24 11:20:00,
2013-07-24 06:25:00,71.9,71.3,29.89,West,271,5.0,7.0,98,0.00,,,0.00,WeatherTracker,2013-07-24 11:25:00,
2013-07-24 06:35:00,72.2,71.6,29.89,West,263,2.0,7.0,98,0.00,,,0.00,WeatherTracker,2013-07-24 11:35:00,
2013-07-24 06:40:00,72.4,71.8,29.89,West,279,3.0,6.0,98,0.00,,,0.00,WeatherTracker,2013-07-24 11:40:00,
2013-07-24 06:50:00,72.6,72.0,29.89,West,269,4.0,5.0,98,0.00,,,0.00,WeatherTracker,2013-07-24 11:50:00,
2013-07-24 06:55:00,72.6,72.0,29.89,West,259,4.0,7.0,98,0.00,,,0.00,WeatherTracker,2013-07-24 11:55:00,
2013-07-24 07:05:00,72.7,72.1,29.89,West,272,3.0,8.0,98,0.00,,,0.00,WeatherTracker,2013-07-24 12:05:00,
2013-07-24 07:15:00,72.9,72.3,29.89,WSW,240,2.0,6.0,98,0.00,,,0.00,WeatherTracker,2013-07-24 12:15:00,
2013-07-24 07:20:00,73.0,72.4,29.89,West,259,3.0,6.0,98,0.00,,,0.00,WeatherTracker,2013-07-24 12:20:00,
2013-07-24 07:25:00,73.1,72.5,29.89,WSW,251,2.0,6.0,98,0.00,,,0.00,WeatherTracker,2013-07-24 12:25:00,
2013-07-24 07:35:00,73.3,72.7,29.89,West,270,4.0,6.0,98,0.00,,,0.00,WeatherTracker,2013-07-24 12:35:00,
2013-07-24 07:40:00,73.5,72.9,29.90,WNW,292,5.0,5.0,98,0.00,,,0.00,WeatherTracker,2013-07-24 12:40:00,
2013-07-24 07:50:00,73.8,73.2,29.90,West,281,3.0,8.0,98,0.00,,,0.00,WeatherTracker,2013-07-24 12:50:00,
2013-07-24 07:55:00,74.1,73.5,29.90,WNW,284,2.0,8.0,98,0.00,,,0.00,WeatherTracker,2013-07-24 12:55:00,
2013-07-24 08:00:00,74.2,73.6,29.90,West,281,5.0,9.0,98,0.00,,,0.00,WeatherTracker,2013-07-24 13:00:00,
2013-07-24 08:05:00,74.6,74.0,29.90,West,275,3.0,9.0,98,0.00,,,0.00,WeatherTracker,2013-07-24 13:05:00,
2013-07-24 08:10:00,74.8,74.2,29.90,WNW,284,3.0,10.0,98,0.00,,,0.00,WeatherTracker,2013-07-24 13:10:00,
2013-07-24 08:20:00,75.4,74.8,29.91,WNW,289,4.0,9.0,98,0.00,,,0.00,WeatherTracker,2013-07-24 13:20:00,
2013-07-24 08:25:00,75.4,74.8,29.91,NW,317,3.0,9.0,98,0.00,,,0.00,WeatherTracker,2013-07-24 13:25:00,
2013-07-24 08:30:00,75.6,75.0,29.91,WNW,294,5.0,9.0,98,0.00,,,0.00,WeatherTracker,2013-07-24 13:30:00,
2013-07-24 08:35:00,75.8,75.2,29.91,NW,312,2.0,8.0,98,0.00,,,0.00,WeatherTracker,2013-07-24 13:35:00,
2013-07-24 08:45:00,76.4,75.8,29.91,West,275,2.0,8.0,98,0.00,,,0.00,WeatherTracker,2013-07-24 13:45:00,
2013-07-24 08:55:00,77.4,76.8,29.91,NW,323,3.0,5.0,98,0.00,,,0.00,WeatherTracker,2013-07-24 13:55:00,
2013-07-24 09:05:00,77.8,76.9,29.91,WNW,296,5.0,7.0,97,0.00,,,0.00,WeatherTracker,2013-07-24 14:05:00,
2013-07-24 09:15:00,78.6,77.4,29.91,WNW,301,4.0,8.0,96,0.00,,,0.00,WeatherTracker,2013-07-24 14:15:00,
2013-07-24 09:25:00,78.8,76.9,29.91,NW,315,4.0,9.0,94,0.00,,,0.00,WeatherTracker,2013-07-24 14:25:00,
2013-07-24 09:35:00,79.2,76.7,29.91,WNW,302,4.0,8.0,92,0.00,,,0.00,WeatherTracker,2013-07-24 14:35:00,
2013-07-24 09:45:00,79.6,76.7,29.91,NW,308,2.0,10.0,91,0.00,,,0.00,WeatherTracker,2013-07-24 14:45:00,
2013-07-24 09:50:00,80.0,77.1,29.91,NW,323,5.0,10.0,91,0.00,,,0.00,WeatherTracker,2013-07-24 14:50:00,
2013-07-24 09:55:00,80.4,77.2,29.91,NW,323,3.0,10.0,90,0.00,,,0.00,WeatherTracker,2013-07-24 14:55:00,
2013-07-24 10:00:00,80.9,77.3,29.91,North,350,4.0,9.0,89,0.00,,,0.00,WeatherTracker,2013-07-24 15:00:00,
2013-07-24 10:10:00,81.2,77.6,29.91,NW,317,7.0,7.0,89,0.00,,,0.00,WeatherTracker,2013-07-24 15:10:00,
2013-07-24 10:20:00,81.0,77.1,29.91,NW,313,4.0,9.0,88,0.00,,,0.00,WeatherTracker,2013-07-24 15:20:00,
2013-07-24 10:30:00,81.2,77.3,29.91,WNW,291,4.0,8.0,88,0.00,,,0.00,WeatherTracker,2013-07-24 15:30:00,
2013-07-24 10:35:00,81.4,77.5,29.91,West,275,5.0,7.0,88,0.00,,,0.00,WeatherTracker,2013-07-24 15:35:00,
2013-07-24 10:45:00,82.8,78.5,29.90,WNW,294,6.0,9.0,87,0.00,,,0.00,WeatherTracker,2013-07-24 15:45:00,
2013-07-24 10:50:00,83.3,78.3,29.90,WNW,289,2.0,8.0,85,0.00,,,0.00,WeatherTracker,2013-07-24 15:50:00,
2013-07-24 10:55:00,83.8,78.4,29.90,WNW,301,2.0,8.0,84,0.00,,,0.00,WeatherTracker,2013-07-24 15:55:00,
2013-07-24 11:00:00,84.7,79.3,29.90,WNW,297,3.0,8.0,84,0.00,,,0.00,WeatherTracker,2013-07-24 16:00:00,
2013-07-24 11:05:00,84.8,79.4,29.90,WSW,257,5.0,8.0,84,0.00,,,0.00,WeatherTracker,2013-07-24 16:05:00,
2013-07-24 11:10:00,84.5,78.8,29.90,West,263,5.0,9.0,83,0.00,,,0.00,WeatherTracker,2013-07-24 16:10:00,
2013-07-24 11:15:00,84.3,78.9,29.90,WNW,302,5.0,9.0,84,0.00,,,0.00,WeatherTracker,2013-07-24 16:15:00,
2013-07-24 11:20:00,83.8,78.4,29.91,West,275,5.0,11.0,84,0.00,,,0.00,WeatherTracker,2013-07-24 16:20:00,
2013-07-24 11:30:00,83.4,78.4,29.91,West,265,4.0,12.0,85,0.00,,,0.00,WeatherTracker,2013-07-24 16:30:00,
2013-07-24 11:40:00,83.0,78.0,29.90,WNW,282,5.0,10.0,85,0.00,,,0.00,WeatherTracker,2013-07-24 16:40:00,
2013-07-24 11:50:00,83.4,78.8,29.90,WSW,255,3.0,7.0,86,0.00,,,0.00,WeatherTracker,2013-07-24 16:50:00,
2013-07-24 11:55:00,83.5,78.9,29.90,West,269,3.0,7.0,86,0.00,,,0.00,WeatherTracker,2013-07-24 16:55:00,
2013-07-24 12:00:00,83.5,78.5,29.90,West,276,2.0,7.0,85,0.00,,,0.00,WeatherTracker,2013-07-24 17:00:00,
2013-07-24 12:05:00,83.7,79.4,29.90,WSW,254,3.0,7.0,87,0.00,,,0.00,WeatherTracker,2013-07-24 17:05:00,
2013-07-24 12:10:00,83.5,78.9,29.90,WSW,254,5.0,7.0,86,0.00,,,0.00,WeatherTracker,2013-07-24 17:10:00,
2013-07-24 12:20:00,83.7,79.4,29.90,WSW,247,3.0,8.0,87,0.00,,,0.00,WeatherTracker,2013-07-24 17:20:00,
2013-07-24 12:25:00,84.0,79.7,29.89,WSW,247,4.0,7.0,87,0.00,,,0.00,WeatherTracker,2013-07-24 17:25:00,
2013-07-24 12:35:00,84.5,80.2,29.88,West,277,3.0,8.0,87,0.00,,,0.00,WeatherTracker,2013-07-24 17:35:00,
2013-07-24 12:45:00,84.0,78.6,29.87,WSW,239,1.0,6.0,84,0.00,,,0.00,WeatherTracker,2013-07-24 17:45:00,
2013-07-24 12:50:00,84.6,78.5,29.87,SW,220,2.0,6.0,82,0.00,,,0.00,WeatherTracker,2013-07-24 17:50:00,
2013-07-24 13:00:00,85.9,79.7,29.87,WNW,289,8.0,8.0,82,0.00,,,0.00,WeatherTracker,2013-07-24 18:00:00,
2013-07-24 13:05:00,85.6,79.1,29.87,WNW,283,4.0,11.0,81,0.00,,,0.00,WeatherTracker,2013-07-24 18:05:00,
2013-07-24 13:10:00,85.4,79.3,29.86,WSW,237,6.0,11.0,82,0.00,,,0.00,WeatherTracker,2013-07-24 18:10:00,
2013-07-24 13:15:00,85.6,79.8,29.87,West,277,5.0,11.0,83,0.00,,,0.00,WeatherTracker,2013-07-24 18:15:00,
2013-07-24 13:25:00,84.8,78.7,29.87,WSW,252,4.0,11.0,82,0.00,,,0.00,WeatherTracker,2013-07-24 18:25:00,
2013-07-24 13:30:00,83.5,74.7,29.87,WNW,292,10.0,17.0,75,0.00,,,0.00,WeatherTracker,2013-07-24 18:30:00,
2013-07-24 13:35:00,81.8,73.9,29.87,WSW,253,14.0,17.0,77,0.00,,,0.00,WeatherTracker,2013-07-24 18:35:00,
2013-07-24 13:45:00,79.4,73.8,29.86,SW,232,5.0,16.0,83,0.00,,,0.00,WeatherTracker,2013-07-24 18:45:00,
2013-07-24 13:50:00,79.5,74.6,29.86,WSW,246,5.0,12.0,85,0.00,,,0.00,WeatherTracker,2013-07-24 18:50:00,
2013-07-24 14:00:00,80.9,74.1,29.85,WSW,253,7.0,12.0,80,0.00,,,0.00,WeatherTracker,2013-07-24 19:00:00,
2013-07-24 14:05:00,81.1,74.7,29.86,WSW,247,3.0,9.0,81,0.00,,,0.00,WeatherTracker,2013-07-24 19:05:00,
2013-07-24 14:15:00,82.6,75.0,29.86,West,275,5.0,12.0,78,0.00,,,0.00,WeatherTracker,2013-07-24 19:15:00,
2013-07-24 14:20:00,83.1,74.3,29.85,West,280,5.0,9.0,75,0.00,,,0.00,WeatherTracker,2013-07-24 19:20:00,
2013-07-24 14:25:00,82.8,74.8,29.84,WSW,251,4.0,9.0,77,0.00,,,0.00,WeatherTracker,2013-07-24 19:25:00,
2013-07-24 14:30:00,82.4,74.4,29.85,WNW,295,3.0,9.0,77,0.00,,,0.00,WeatherTracker,2013-07-24 19:30:00,
2013-07-24 14:40:00,81.5,74.3,29.86,WNW,294,2.0,6.0,79,0.00,,,0.00,WeatherTracker,2013-07-24 19:40:00,
2013-07-24 14:45:00,81.0,74.6,29.86,NW,311,4.0,6.0,81,0.00,,,0.00,WeatherTracker,2013-07-24 19:45:00,
2013-07-24 14:50:00,80.4,74.7,29.87,North,351,6.0,8.0,83,0.00,,,0.00,WeatherTracker,2013-07-24 19:50:00,
2013-07-24 15:00:00,79.0,73.7,29.87,NNE,15,5.0,10.0,84,0.00,,,0.00,WeatherTracker,2013-07-24 20:00:00,
2013-07-24 15:05:00,78.5,73.6,29.87,NW,325,4.0,9.0,85,0.00,,,0.00,WeatherTracker,2013-07-24 20:05:00,
2013-07-24 15:15:00,77.6,73.4,29.88,NW,304,4.0,8.0,87,0.00,,,0.00,WeatherTracker,2013-07-24 20:15:00,
2013-07-24 15:20:00,76.9,73.1,29.88,NW,311,6.0,9.0,88,0.01,,,0.01,WeatherTracker,2013-07-24 20:20:00,
2013-07-24 15:30:00,75.7,72.9,29.87,West,279,4.0,10.0,91,0.01,,,0.01,WeatherTracker,2013-07-24 20:30:00,
2013-07-24 15:40:00,75.4,73.2,29.86,West,275,2.0,7.0,93,0.01,,,0.01,WeatherTracker,2013-07-24 20:40:00,
2013-07-24 15:45:00,75.3,73.1,29.86,WNW,284,5.0,7.0,93,0.01,,,0.01,WeatherTracker,2013-07-24 20:45:00,
2013-07-24 15:50:00,74.9,72.7,29.86,WNW,284,5.0,8.0,93,0.01,,,0.01,WeatherTracker,2013-07-24 20:50:00,
2013-07-24 16:00:00,74.9,72.7,29.85,West,266,3.0,7.0,93,0.01,,,0.01,WeatherTracker,2013-07-24 21:00:00,
2013-07-24 16:10:00,74.7,72.5,29.87,WSW,247,6.0,8.0,93,0.01,,,0.01,WeatherTracker,2013-07-24 21:10:00,
2013-07-24 16:15:00,74.7,72.5,29.87,WNW,282,2.0,8.0,93,0.01,,,0.01,WeatherTracker,2013-07-24 21:15:00,
2013-07-24 16:20:00,74.8,73.0,29.87,WNW,284,4.0,7.0,94,0.00,,,0.01,WeatherTracker,2013-07-24 21:20:00,
2013-07-24 16:25:00,74.8,73.0,29.88,West,265,3.0,6.0,94,0.00,,,0.01,WeatherTracker,2013-07-24 21:25:00,
2013-07-24 16:30:00,74.7,72.9,29.88,West,279,1.0,7.0,94,0.00,,,0.01,WeatherTracker,2013-07-24 21:30:00,
2013-07-24 16:35:00,74.7,72.9,29.88,WSW,253,3.0,7.0,94,0.00,,,0.01,WeatherTracker,2013-07-24 21:35:00,
2013-07-24 16:40:00,74.7,72.9,29.87,SW,236,4.0,7.0,94,0.00,,,0.01,WeatherTracker,2013-07-24 21:40:00,
2013-07-24 16:45:00,74.7,72.9,29.87,WSW,237,2.0,5.0,94,0.00,,,0.01,WeatherTracker,2013-07-24 21:45:00,
2013-07-24 16:50:00,74.9,73.1,29.88,West,279,3.0,5.0,94,0.00,,,0.01,WeatherTracker,2013-07-24 21:50:00,
2013-07-24 17:00:00,74.7,72.9,29.88,West,270,2.0,5.0,94,0.00,,,0.01,WeatherTracker,2013-07-24 22:00:00,
2013-07-24 17:05:00,74.7,72.9,29.88,West,280,4.0,5.0,94,0.00,,,0.01,WeatherTracker,2013-07-24 22:05:00,
2013-07-24 17:15:00,74.8,73.0,29.88,West,280,0.0,5.0,94,0.00,,,0.01,WeatherTracker,2013-07-24 22:15:00,
2013-07-24 17:20:00,74.8,73.0,29.88,West,280,0.0,3.0,94,0.00,,,0.01,WeatherTracker,2013-07-24 22:20:00,
2013-07-24 17:30:00,74.9,73.1,29.89,West,280,0.0,0.0,94,0.00,,,0.01,WeatherTracker,2013-07-24 22:30:00,
2013-07-24 17:35:00,74.9,73.4,29.89,West,280,0.0,0.0,95,0.00,,,0.01,WeatherTracker,2013-07-24 22:35:00,
2013-07-24 17:45:00,75.0,73.5,29.89,West,280,0.0,0.0,95,0.00,,,0.01,WeatherTracker,2013-07-24 22:45:00,
2013-07-24 17:50:00,74.9,73.4,29.89,West,280,0.0,0.0,95,0.00,,,0.01,WeatherTracker,2013-07-24 22:50:00,
2013-07-24 18:00:00,75.1,73.6,29.89,West,280,0.0,0.0,95,0.00,,,0.01,WeatherTracker,2013-07-24 23:00:00,
2013-07-24 18:10:00,75.2,73.7,29.89,West,280,0.0,0.0,95,0.00,,,0.01,WeatherTracker,2013-07-24 23:10:00,
2013-07-24 18:20:00,75.2,73.7,29.88,West,280,0.0,0.0,95,0.00,,,0.01,WeatherTracker,2013-07-24 23:20:00,
2013-07-24 18:25:00,75.2,73.7,29.88,West,280,0.0,0.0,95,0.00,,,0.01,WeatherTracker,2013-07-24 23:25:00,
2013-07-24 18:30:00,75.2,73.7,29.87,West,280,0.0,0.0,95,0.00,,,0.01,WeatherTracker,2013-07-24 23:30:00,
2013-07-24 18:40:00,75.2,73.7,29.87,West,280,0.0,3.0,95,0.01,,,0.02,WeatherTracker,2013-07-24 23:40:00,
2013-07-24 18:50:00,75.2,73.7,29.87,West,280,0.0,0.0,95,0.01,,,0.02,WeatherTracker,2013-07-24 23:50:00,
2013-07-24 18:55:00,75.2,73.7,29.87,West,280,0.0,0.0,95,0.01,,,0.02,WeatherTracker,2013-07-24 23:55:00,
2013-07-24 19:00:00,75.2,73.7,29.87,West,280,0.0,0.0,95,0.01,,,0.02,WeatherTracker,2013-07-25 00:00:00,
2013-07-24 19:10:00,75.3,73.8,29.87,West,280,0.0,0.0,95,0.01,,,0.02,WeatherTracker,2013-07-25 00:10:00,
2013-07-24 19:15:00,75.2,73.7,29.87,West,280,0.0,0.0,95,0.01,,,0.02,WeatherTracker,2013-07-25 00:15:00,
2013-07-24 19:25:00,75.2,73.7,29.87,West,280,0.0,2.0,95,0.01,,,0.02,WeatherTracker,2013-07-25 00:25:00,
2013-07-24 19:30:00,75.1,73.6,29.88,West,280,0.0,3.0,95,0.01,,,0.02,WeatherTracker,2013-07-25 00:30:00,
2013-07-24 19:35:00,75.0,73.5,29.89,West,280,1.0,4.0,95,0.00,,,0.02,WeatherTracker,2013-07-25 00:35:00,
2013-07-24 19:45:00,74.9,73.4,29.89,NW,310,2.0,5.0,95,0.00,,,0.02,WeatherTracker,2013-07-25 00:45:00,
2013-07-24 19:55:00,74.7,73.2,29.89,NW,310,3.0,4.0,95,0.00,,,0.02,WeatherTracker,2013-07-25 00:55:00,
2013-07-24 20:00:00,74.6,73.4,29.89,NW,310,1.0,4.0,96,0.00,,,0.02,WeatherTracker,2013-07-25 01:00:00,
2013-07-24 20:10:00,74.5,73.3,29.89,NW,310,0.0,3.0,96,0.00,,,0.02,WeatherTracker,2013-07-25 01:10:00,
2013-07-24 20:15:00,74.5,73.3,29.88,NW,310,0.0,4.0,96,0.00,,,0.02,WeatherTracker,2013-07-25 01:15:00,
2013-07-24 20:25:00,74.4,73.2,29.88,NW,310,0.0,3.0,96,0.00,,,0.02,WeatherTracker,2013-07-25 01:25:00,
2013-07-24 20:35:00,74.4,73.2,29.88,NW,310,0.0,1.0,96,0.01,,,0.03,WeatherTracker,2013-07-25 01:35:00,
2013-07-24 20:45:00,74.3,73.1,29.88,NW,310,0.0,0.0,96,0.01,,,0.03,WeatherTracker,2013-07-25 01:45:00,
2013-07-24 20:55:00,74.2,73.0,29.88,NW,310,0.0,4.0,96,0.01,,,0.03,WeatherTracker,2013-07-25 01:55:00,
2013-07-24 21:00:00,74.0,72.8,29.88,WNW,300,1.0,4.0,96,0.01,,,0.03,WeatherTracker,2013-07-25 02:00:00,
2013-07-24 21:05:00,73.7,72.5,29.88,WNW,298,0.0,3.0,96,0.01,,,0.03,WeatherTracker,2013-07-25 02:05:00,
2013-07-24 21:10:00,73.6,72.4,29.88,WNW,296,0.0,3.0,96,0.01,,,0.03,WeatherTracker,2013-07-25 02:10:00,
2013-07-24 21:20:00,73.5,72.3,29.87,WNW,296,0.0,2.0,96,0.01,,,0.03,WeatherTracker,2013-07-25 02:20:00,
2013-07-24 21:30:00,73.4,72.2,29.87,West,277,0.0,3.0,96,0.00,,,0.03,WeatherTracker,2013-07-25 02:30:00,
2013-07-24 21:35:00,73.2,72.0,29.87,West,274,3.0,4.0,96,0.00,,,0.03,WeatherTracker,2013-07-25 02:35:00,
2013-07-24 21:45:00,73.1,71.9,29.87,SW,236,3.0,5.0,96,0.00,,,0.03,WeatherTracker,2013-07-25 02:45:00,
2013-07-24 21:50:00,73.1,71.9,29.87,SW,233,4.0,5.0,96,0.00,,,0.03,WeatherTracker,2013-07-25 02:50:00,
2013-07-24 21:55:00,73.0,71.8,29.87,SW,233,3.0,4.0,96,0.00,,,0.03,WeatherTracker,2013-07-25 02:55:00,
2013-07-24 22:00:00,72.9,71.7,29.86,SW,228,5.0,5.0,96,0.00,,,0.03,WeatherTracker,2013-07-25 03:00:00,
2013-07-24 22:10:00,72.7,71.5,29.86,WSW,238,4.0,7.0,96,0.00,,,0.03,WeatherTracker,2013-07-25 03:10:00,
2013-07-24 22:15:00,72.7,71.5,29.87,SW,227,3.0,7.0,96,0.00,,,0.03,WeatherTracker,2013-07-25 03:15:00,
2013-07-24 22:25:00,72.6,71.7,29.87,SW,227,0.0,6.0,97,0.00,,,0.03,WeatherTracker,2013-07-25 03:25:00,
2013-07-24 22:35:00,72.5,71.6,29.87,West,260,0.0,5.0,97,0.00,,,0.03,WeatherTracker,2013-07-25 03:35:00,
2013-07-24 22:40:00,72.5,71.6,29.88,West,260,0.0,4.0,97,0.00,,,0.03,WeatherTracker,2013-07-25 03:40:00,
2013-07-24 22:45:00,72.4,71.5,29.88,West,260,0.0,3.0,97,0.00,,,0.03,WeatherTracker,2013-07-25 03:45:00,
2013-07-24 22:50:00,72.4,71.5,29.88,West,260,0.0,0.0,97,0.00,,,0.03,WeatherTracker,2013-07-25 03:50:00,
2013-07-24 23:00:00,72.2,71.3,29.88,West,260,0.0,2.0,97,0.00,,,0.03,WeatherTracker,2013-07-25 04:00:00,
2013-07-24 23:05:00,72.0,70.8,29.89,West,260,2.0,2.0,96,0.00,,,0.03,WeatherTracker,2013-07-25 04:05:00,
2013-07-24 23:10:00,71.9,71.0,29.88,West,260,0.0,3.0,97,0.00,,,0.03,WeatherTracker,2013-07-25 04:10:00,
2013-07-24 23:15:00,71.8,70.9,29.88,West,260,1.0,3.0,97,0.00,,,0.03,WeatherTracker,2013-07-25 04:15:00,
2013-07-24 23:20:00,71.6,70.7,29.88,West,260,0.0,3.0,97,0.00,,,0.03,WeatherTracker,2013-07-25 04:20:00,
2013-07-24 23:30:00,71.4,70.2,29.89,West,260,0.0,0.0,96,0.00,,,0.03,WeatherTracker,2013-07-25 04:30:00,
2013-07-24 23:35:00,71.4,70.2,29.89,West,260,0.0,0.0,96,0.00,,,0.03,WeatherTracker,2013-07-25 04:35:00,
2013-07-24 23:40:00,71.3,70.1,29.89,West,260,0.0,0.0,96,0.00,,,0.03,WeatherTracker,2013-07-25 04:40:00,
2013-07-24 23:50:00,71.2,70.0,29.89,West,260,0.0,0.0,96,0.00,,,0.03,WeatherTracker,2013-07-25 04:50:00,